| time (UTC) | temp F | wind direction | speed MPH | gust MPH | rain 1hr in | rain 24hr in | rain mn in | humidity % | barometer mb |
| 20260902060049 | 79 | 0 | 0.0 | 0.0 | 0.00 | 0.68 | 0.00 | 96 | 1015.1 |
| 20260902054547 | 79 | 0 | 0.0 | 2.0 | 0.00 | 0.69 | 0.00 | 96 | 1015.3 |
| 20260902053047 | 79 | 111 | 0.0 | 2.0 | 0.00 | 0.69 | 0.00 | 95 | 1015.3 |
| 20260902051541 | 79 | 0 | 0.0 | 2.0 | 0.00 | 0.69 | 0.00 | 95 | 1015.2 |
| 20260902050055 | 80 | 0 | 0.0 | 3.0 | 0.00 | 0.69 | 0.00 | 95 | 1015.2 |
| 20260902044546 | 80 | 0 | 0.0 | 4.0 | 0.00 | 0.69 | 0.69 | 95 | 1015.1 |
| 20260902043045 | 80 | 161 | 0.0 | 4.0 | 0.00 | 0.69 | 0.69 | 95 | 1015.3 |
| 20260902041542 | 80 | 0 | 0.0 | 3.0 | 0.00 | 0.69 | 0.69 | 95 | 1015.3 |
| 20260902040039 | 80 | 168 | 0.0 | 4.0 | 0.00 | 0.69 | 0.69 | 95 | 1015.4 |
| 20260902034540 | 80 | 74 | 0.0 | 4.0 | 0.00 | 0.69 | 0.69 | 94 | 1015.4 |
| 20260902033047 | 80 | 151 | 0.0 | 4.0 | 0.00 | 0.69 | 0.69 | 94 | 1015.3 |
| 20260902031545 | 81 | 134 | 1.0 | 6.0 | 0.00 | 0.69 | 0.69 | 94 | 1015.1 |
| 20260902030039 | 80 | 103 | 1.0 | 8.0 | 0.00 | 0.69 | 0.69 | 94 | 1015.0 |
| 20260902024539 | 80 | 0 | 1.0 | 5.0 | 0.00 | 0.69 | 0.69 | 94 | 1014.9 |
| 20260902023051 | 80 | 0 | 1.0 | 4.0 | 0.00 | 0.69 | 0.69 | 94 | 1014.7 |
| 20260902021544 | 81 | 0 | 1.0 | 6.0 | 0.00 | 0.69 | 0.69 | 94 | 1014.6 |
| 20260902020040 | 81 | 174 | 0.0 | 3.0 | 0.00 | 0.69 | 0.69 | 93 | 1014.5 |
| 20260902014549 | 81 | 82 | 1.0 | 5.0 | 0.00 | 0.69 | 0.69 | 93 | 1014.3 |
| 20260902013047 | 81 | 0 | 1.0 | 6.0 | 0.00 | 0.69 | 0.69 | 93 | 1014.1 |
| 20260902011549 | 81 | 208 | 1.0 | 6.0 | 0.00 | 0.69 | 0.69 | 93 | 1014.1 |
| 20260902010040 | 81 | 0 | 0.0 | 4.0 | 0.00 | 0.69 | 0.69 | 92 | 1014.2 |
| 20260902004540 | 82 | 67 | 0.0 | 4.0 | 0.00 | 0.69 | 0.69 | 91 | 1014.4 |
| 20260902003047 | 82 | 153 | 0.0 | 5.0 | 0.00 | 0.69 | 0.69 | 91 | 1014.4 |
| 20260902001545 | 82 | 119 | 1.0 | 7.0 | 0.00 | 0.69 | 0.69 | 90 | 1014.4 |
| 20260902000048 | 83 | 185 | 0.0 | 4.0 | 0.00 | 0.69 | 0.69 | 90 | 1014.3 |
| 20260901234539 | 83 | 145 | 2.0 | 9.0 | 0.00 | 0.69 | 0.69 | 89 | 1014.2 |
| 20260901233046 | 83 | 0 | 2.0 | 10.0 | 0.00 | 0.69 | 0.69 | 88 | 1014.0 |
| 20260901231545 | 84 | 173 | 3.0 | 10.0 | 0.00 | 0.69 | 0.69 | 89 | 1014.1 |
| 20260901230044 | 84 | 125 | 3.0 | 8.0 | 0.00 | 0.69 | 0.69 | 89 | 1014.0 |
| 20260901224551 | 84 | 97 | 2.0 | 11.0 | 0.00 | 0.70 | 0.69 | 89 | 1013.8 |
| 20260901223038 | 84 | 151 | 3.0 | 11.0 | 0.00 | 0.70 | 0.69 | 89 | 1013.8 |
| 20260901221556 | 84 | 167 | 2.0 | 12.0 | 0.00 | 0.70 | 0.69 | 89 | 1013.7 |
| 20260901220045 | 84 | 137 | 2.0 | 10.0 | 0.00 | 0.70 | 0.69 | 88 | 1013.7 |
| 20260901214554 | 84 | 213 | 4.0 | 10.0 | 0.00 | 0.70 | 0.69 | 87 | 1013.8 |
| 20260901213035 | 84 | 181 | 3.0 | 10.0 | 0.00 | 0.70 | 0.69 | 87 | 1013.8 |
| 20260901211539 | 84 | 86 | 3.0 | 12.0 | 0.00 | 0.70 | 0.69 | 87 | 1014.0 |
| 20260901210042 | 84 | 169 | 3.0 | 13.0 | 0.00 | 0.70 | 0.69 | 88 | 1014.1 |
| 20260901204538 | 84 | 90 | 3.0 | 10.0 | 0.00 | 0.70 | 0.69 | 89 | 1014.4 |
| 20260901203035 | 84 | 69 | 4.0 | 12.0 | 0.00 | 0.70 | 0.69 | 87 | 1014.7 |
| 20260901201538 | 84 | 96 | 4.0 | 11.0 | 0.00 | 0.70 | 0.69 | 88 | 1014.8 |
| 20260901200038 | 84 | 206 | 4.0 | 13.0 | 0.00 | 0.70 | 0.69 | 86 | 1014.7 |
| 20260901194549 | 84 | 94 | 3.0 | 13.0 | 0.00 | 0.73 | 0.69 | 87 | 1014.5 |
| 20260901193040 | 84 | 172 | 4.0 | 11.0 | 0.00 | 0.73 | 0.69 | 88 | 1014.6 |
| 20260901191549 | 84 | 136 | 4.0 | 11.0 | 0.00 | 0.73 | 0.69 | 88 | 1015.0 |
| 20260901190047 | 84 | 67 | 4.0 | 10.0 | 0.00 | 0.73 | 0.69 | 88 | 1014.9 |
| 20260901184538 | 84 | 38 | 3.0 | 10.0 | 0.00 | 0.73 | 0.69 | 88 | 1015.1 |
| 20260901183102 | 84 | 42 | 3.0 | 9.0 | 0.00 | 0.73 | 0.69 | 88 | 1015.2 |
| 20260901181540 | 84 | 156 | 2.0 | 10.0 | 0.00 | 0.73 | 0.69 | 89 | 1014.8 |
| 20260901180038 | 83 | 184 | 3.0 | 14.0 | 0.00 | 0.73 | 0.69 | 91 | 1014.9 |
| 20260901174541 | 82 | 136 | 3.0 | 13.0 | 0.00 | 0.73 | 0.69 | 92 | 1014.9 |
| 20260901173041 | 82 | 90 | 2.0 | 10.0 | 0.00 | 0.73 | 0.69 | 94 | 1015.0 |
| 20260901171538 | 81 | 42 | 3.0 | 10.0 | 0.00 | 0.73 | 0.69 | 96 | 1015.3 |
| 20260901170045 | 80 | 144 | 3.0 | 9.0 | 0.00 | 0.73 | 0.69 | 97 | 1015.1 |
| 20260901164541 | 79 | 202 | 3.0 | 8.0 | 0.00 | 0.73 | 0.69 | 97 | 1015.4 |
| 20260901163051 | 79 | 65 | 4.0 | 11.0 | 0.00 | 0.73 | 0.69 | 98 | 1015.4 |
| 20260901161538 | 79 | 124 | 3.0 | 9.0 | 0.00 | 0.73 | 0.69 | 98 | 1015.4 |
| 20260901160040 | 78 | 38 | 3.0 | 9.0 | 0.01 | 0.73 | 0.69 | 98 | 1015.5 |
| 20260901154602 | 77 | 90 | 2.0 | 5.0 | 0.21 | 0.73 | 0.69 | 98 | 1015.5 |
| 20260901153046 | 77 | 97 | 3.0 | 10.0 | 0.23 | 0.73 | 0.69 | 98 | 1015.5 |
| 20260901151539 | 78 | 64 | 4.0 | 11.0 | 0.23 | 0.73 | 0.69 | 98 | 1015.3 |
| 20260901150054 | 78 | 63 | 5.0 | 13.0 | 0.22 | 0.72 | 0.68 | 98 | 1015.1 |
| 20260901144544 | 78 | 35 | 4.0 | 9.0 | 0.02 | 0.52 | 0.48 | 98 | 1015.3 |
| 20260901143045 | 78 | 32 | 4.0 | 11.0 | 0.01 | 0.50 | 0.46 | 99 | 1015.1 |
| 20260901141548 | 77 | 336 | 4.0 | 10.0 | 0.02 | 0.50 | 0.46 | 98 | 1015.2 |
| 20260901140048 | 77 | 64 | 3.0 | 9.0 | 0.03 | 0.50 | 0.46 | 99 | 1015.0 |
| 20260901134545 | 77 | 121 | 5.0 | 10.0 | 0.03 | 0.50 | 0.46 | 98 | 1014.9 |
| 20260901133041 | 77 | 117 | 2.0 | 7.0 | 0.02 | 0.49 | 0.45 | 98 | 1014.9 |
| 20260901131547 | 77 | 66 | 2.0 | 9.0 | 0.02 | 0.48 | 0.44 | 98 | 1014.7 |
| 20260901130043 | 77 | 59 | 4.0 | 16.0 | 0.02 | 0.47 | 0.43 | 98 | 1014.7 |
| 20260901124550 | 77 | 97 | 4.0 | 10.0 | 0.02 | 0.47 | 0.43 | 98 | 1014.4 |
| 20260901123049 | 76 | 84 | 3.0 | 10.0 | 0.11 | 0.46 | 0.42 | 98 | 1014.2 |
| 20260901121544 | 76 | 46 | 3.0 | 9.0 | 0.20 | 0.46 | 0.42 | 98 | 1013.9 |
| 20260901120107 | 76 | 360 | 5.0 | 9.0 | 0.24 | 0.45 | 0.41 | 98 | 1013.9 |
| 20260901114538 | 76 | 81 | 1.0 | 7.0 | 0.27 | 0.45 | 0.41 | 98 | 1013.9 |
| 20260901113051 | 75 | 45 | 4.0 | 8.0 | 0.18 | 0.34 | 0.30 | 98 | 1013.8 |
| 20260901111543 | 75 | 50 | 3.0 | 8.0 | 0.13 | 0.26 | 0.22 | 97 | 1013.8 |
| 20260901110048 | 75 | 65 | 3.0 | 10.0 | 0.10 | 0.21 | 0.17 | 97 | 1013.7 |
| 20260901104539 | 76 | 67 | 3.0 | 10.0 | 0.09 | 0.18 | 0.14 | 97 | 1013.5 |
| 20260901103049 | 76 | 69 | 3.0 | 9.0 | 0.08 | 0.16 | 0.12 | 97 | 1013.4 |
| 20260901101538 | 76 | 42 | 3.0 | 11.0 | 0.05 | 0.13 | 0.09 | 97 | 1013.8 |
| 20260901100039 | 76 | 34 | 5.0 | 12.0 | 0.05 | 0.11 | 0.07 | 96 | 1013.6 |
| 20260901094539 | 77 | 51 | 2.0 | 10.0 | 0.03 | 0.09 | 0.05 | 96 | 1013.7 |
| 20260901093040 | 77 | 46 | 3.0 | 11.0 | 0.02 | 0.08 | 0.04 | 95 | 1013.8 |
| 20260901091541 | 77 | 5 | 3.0 | 11.0 | 0.02 | 0.08 | 0.04 | 95 | 1013.5 |
| 20260901090040 | 77 | 139 | 3.0 | 6.0 | 0.00 | 0.06 | 0.02 | 94 | 1013.8 |
| 20260901084535 | 77 | 355 | 2.0 | 8.0 | 0.00 | 0.06 | 0.02 | 94 | 1014.1 |
| 20260901083038 | 77 | 76 | 3.0 | 12.0 | 0.00 | 0.06 | 0.02 | 95 | 1013.9 |
| 20260901081541 | 77 | 44 | 4.0 | 8.0 | 0.00 | 0.06 | 0.02 | 95 | 1013.7 |
| 20260901080053 | 77 | 56 | 2.0 | 7.0 | 0.00 | 0.06 | 0.02 | 95 | 1013.8 |
| 20260901074539 | 77 | 70 | 2.0 | 6.0 | 0.00 | 0.06 | 0.02 | 94 | 1013.8 |
| 20260901073038 | 77 | 50 | 2.0 | 7.0 | 0.00 | 0.06 | 0.02 | 94 | 1013.9 |
| 20260901071540 | 78 | 67 | 2.0 | 6.0 | 0.00 | 0.06 | 0.02 | 93 | 1014.1 |
| 20260901070046 | 78 | 219 | 5.0 | 10.0 | 0.01 | 0.06 | 0.02 | 93 | 1014.4 |
| 20260901064538 | 78 | 41 | 2.0 | 6.0 | 0.02 | 0.06 | 0.02 | 94 | 1014.4 |
| 20260901063051 | 78 | 140 | 1.0 | 6.0 | 0.02 | 0.06 | 0.02 | 94 | 1014.6 |
| 20260901061540 | 79 | 98 | 1.0 | 6.0 | 0.02 | 0.06 | 0.02 | 94 | 1014.8 |